Time,TemperatureF,DewpointF,PressureIn,WindDirection,WindDirectionDegrees,WindSpeedMPH,WindSpeedGustMPH,Humidity,HourlyPrecipIn,Conditions,Clouds,dailyrainin,SoftwareType,DateUTC
2013-04-26 00:01:00,57.3,31.3,29.89,NW,318,2.0,7.0,37,0.00,,,0.00,LWC V2.11 B50,2013-04-26 06:01:00,
2013-04-26 00:06:00,57.1,31.1,29.89,NW,307,1.0,4.0,37,0.00,,,0.00,LWC V2.11 B50,2013-04-26 06:06:00,
2013-04-26 00:11:00,56.9,31.6,29.89,NE,40,6.0,6.0,38,0.00,,,0.00,LWC V2.11 B50,2013-04-26 06:11:00,
2013-04-26 00:16:00,56.8,31.5,29.89,NNE,13,0.0,5.0,38,0.00,,,0.00,LWC V2.11 B50,2013-04-26 06:16:00,
2013-04-26 00:21:00,56.6,31.3,29.89,SSW,202,1.0,2.0,38,0.00,,,0.00,LWC V2.11 B50,2013-04-26 06:21:00,
2013-04-26 00:26:00,56.4,31.8,29.89,North,9,0.0,3.0,39,0.00,,,0.00,LWC V2.11 B50,2013-04-26 06:26:00,
2013-04-26 00:31:00,56.2,31.6,29.89,NW,323,0.0,2.0,39,0.00,,,0.00,LWC V2.11 B50,2013-04-26 06:31:00,
2013-04-26 00:36:00,55.9,31.3,29.89,NW,307,0.0,2.0,39,0.00,,,0.00,LWC V2.11 B50,2013-04-26 06:36:00,
2013-04-26 00:41:00,55.6,31.0,29.89,NW,317,1.0,1.0,39,0.00,,,0.00,LWC V2.11 B50,2013-04-26 06:41:00,
2013-04-26 00:46:00,55.0,30.5,29.89,NW,318,4.0,5.0,39,0.00,,,0.00,LWC V2.11 B50,2013-04-26 06:46:00,
2013-04-26 00:51:00,54.1,30.3,29.89,NW,313,4.0,6.0,40,0.00,,,0.00,LWC V2.11 B50,2013-04-26 06:51:00,
2013-04-26 00:56:00,53.6,31.1,29.88,WNW,297,3.0,4.0,42,0.00,,,0.00,LWC V2.11 B50,2013-04-26 06:56:00,
2013-04-26 01:01:00,53.3,30.8,29.89,NW,322,0.0,3.0,42,0.00,,,0.00,LWC V2.11 B50,2013-04-26 07:01:00,
2013-04-26 01:06:00,53.3,31.4,29.88,NW,322,0.0,2.0,43,0.00,,,0.00,LWC V2.11 B50,2013-04-26 07:06:00,
2013-04-26 01:11:00,53.2,31.3,29.88,NW,320,6.0,6.0,43,0.00,,,0.00,LWC V2.11 B50,2013-04-26 07:11:00,
2013-04-26 01:16:00,53.1,30.6,29.88,WNW,295,4.0,5.0,42,0.00,,,0.00,LWC V2.11 B50,2013-04-26 07:16:00,
2013-04-26 01:21:00,52.6,30.7,29.88,West,273,2.0,6.0,43,0.00,,,0.00,LWC V2.11 B50,2013-04-26 07:21:00,
2013-04-26 01:26:00,52.5,31.2,29.88,WNW,297,1.0,6.0,44,0.00,,,0.00,LWC V2.11 B50,2013-04-26 07:26:00,
2013-04-26 01:31:00,52.4,31.1,29.88,NW,321,4.0,6.0,44,0.00,,,0.00,LWC V2.11 B50,2013-04-26 07:31:00,
2013-04-26 01:36:00,52.3,31.0,29.88,NW,313,6.0,6.0,44,0.00,,,0.00,LWC V2.11 B50,2013-04-26 07:36:00,
2013-04-26 01:41:00,52.4,31.1,29.88,WNW,298,4.0,8.0,44,0.00,,,0.00,LWC V2.11 B50,2013-04-26 07:41:00,
2013-04-26 01:46:00,52.5,31.2,29.88,WNW,293,1.0,6.0,44,0.00,,,0.00,LWC V2.11 B50,2013-04-26 07:46:00,
2013-04-26 01:51:00,52.5,31.2,29.88,NW,306,3.0,7.0,44,0.00,,,0.00,LWC V2.11 B50,2013-04-26 07:51:00,
2013-04-26 01:56:00,52.5,31.2,29.88,NW,307,1.0,6.0,44,0.00,,,0.00,LWC V2.11 B50,2013-04-26 07:56:00,
2013-04-26 02:01:00,52.7,31.4,29.88,WNW,303,2.0,8.0,44,0.00,,,0.00,LWC V2.11 B50,2013-04-26 08:01:00,
2013-04-26 02:06:00,52.7,31.4,29.88,WNW,302,2.0,6.0,44,0.00,,,0.00,LWC V2.11 B50,2013-04-26 08:06:00,
2013-04-26 02:11:00,52.3,30.5,29.88,NW,321,3.0,4.0,43,0.00,,,0.00,LWC V2.11 B50,2013-04-26 08:11:00,
2013-04-26 02:16:00,51.6,31.0,29.88,WNW,303,2.0,5.0,45,0.00,,,0.00,LWC V2.11 B50,2013-04-26 08:16:00,
2013-04-26 02:21:00,51.3,30.7,29.88,WNW,303,1.0,2.0,45,0.00,,,0.00,LWC V2.11 B50,2013-04-26 08:21:00,
2013-04-26 02:26:00,51.3,31.2,29.88,NW,325,2.0,2.0,46,0.00,,,0.00,LWC V2.11 B50,2013-04-26 08:26:00,
2013-04-26 02:31:00,51.0,30.4,29.88,WNW,298,0.0,1.0,45,0.00,,,0.00,LWC V2.11 B50,2013-04-26 08:31:00,
2013-04-26 02:36:00,50.6,30.6,29.89,NW,325,0.0,2.0,46,0.00,,,0.00,LWC V2.11 B50,2013-04-26 08:36:00,
2013-04-26 02:41:00,50.6,30.6,29.89,NW,315,0.0,1.0,46,0.00,,,0.00,LWC V2.11 B50,2013-04-26 08:41:00,
2013-04-26 02:46:00,50.6,30.6,29.89,WNW,303,2.0,4.0,46,0.00,,,0.00,LWC V2.11 B50,2013-04-26 08:46:00,
2013-04-26 02:51:00,50.9,30.9,29.90,NW,324,1.0,4.0,46,0.00,,,0.00,LWC V2.11 B50,2013-04-26 08:51:00,
2013-04-26 02:56:00,50.9,30.9,29.90,West,278,3.0,5.0,46,0.00,,,0.00,LWC V2.11 B50,2013-04-26 08:56:00,
2013-04-26 03:00:00,50.9,30.9,29.90,NW,305,9.0,9.0,46,0.00,,,0.00,LWC V2.11 B50,2013-04-26 09:00:00,
2013-04-26 03:05:00,51.2,31.1,29.90,NW,310,2.0,4.0,46,0.00,,,0.00,LWC V2.11 B50,2013-04-26 09:05:00,
2013-04-26 03:10:00,51.4,31.3,29.90,WNW,300,1.0,4.0,46,0.00,,,0.00,LWC V2.11 B50,2013-04-26 09:10:00,
2013-04-26 03:15:00,51.8,31.7,29.90,NNW,330,5.0,5.0,46,0.00,,,0.00,LWC V2.11 B50,2013-04-26 09:15:00,
2013-04-26 03:20:00,52.1,32.0,29.90,West,276,2.0,4.0,46,0.00,,,0.00,LWC V2.11 B50,2013-04-26 09:20:00,
2013-04-26 03:25:00,52.2,32.0,29.90,WNW,292,1.0,3.0,46,0.00,,,0.00,LWC V2.11 B50,2013-04-26 09:25:00,
2013-04-26 03:30:00,52.0,31.9,29.90,West,278,1.0,3.0,46,0.00,,,0.00,LWC V2.11 B50,2013-04-26 09:30:00,
2013-04-26 03:35:00,51.9,31.8,29.90,WNW,288,2.0,4.0,46,0.00,,,0.00,LWC V2.11 B50,2013-04-26 09:35:00,
2013-04-26 03:40:00,51.6,31.5,29.90,West,273,1.0,3.0,46,0.00,,,0.00,LWC V2.11 B50,2013-04-26 09:40:00,
2013-04-26 03:45:00,51.0,31.0,29.91,West,271,0.0,2.0,46,0.00,,,0.00,LWC V2.11 B50,2013-04-26 09:45:00,
2013-04-26 03:50:00,50.5,31.0,29.91,West,261,0.0,4.0,47,0.00,,,0.00,LWC V2.11 B50,2013-04-26 09:50:00,
2013-04-26 03:55:00,50.3,31.4,29.91,WNW,291,2.0,2.0,48,0.00,,,0.00,LWC V2.11 B50,2013-04-26 09:55:00,
2013-04-26 04:00:00,50.1,31.2,29.90,West,272,1.0,3.0,48,0.00,,,0.00,LWC V2.11 B50,2013-04-26 10:00:00,
2013-04-26 04:05:00,49.9,31.0,29.91,WNW,282,0.0,3.0,48,0.00,,,0.00,LWC V2.11 B50,2013-04-26 10:05:00,
2013-04-26 04:10:00,49.9,30.5,29.91,West,273,3.0,3.0,47,0.00,,,0.00,LWC V2.11 B50,2013-04-26 10:10:00,
2013-04-26 04:15:00,49.7,30.3,29.91,WNW,286,0.0,2.0,47,0.00,,,0.00,LWC V2.11 B50,2013-04-26 10:15:00,
2013-04-26 04:20:00,49.8,30.4,29.91,West,275,0.0,4.0,47,0.00,,,0.00,LWC V2.11 B50,2013-04-26 10:20:00,
2013-04-26 04:25:00,49.3,29.4,29.91,WNW,298,0.0,1.0,46,0.00,,,0.00,LWC V2.11 B50,2013-04-26 10:25:00,
2013-04-26 04:30:00,49.3,29.9,29.91,WNW,298,0.0,0.0,47,0.00,,,0.00,LWC V2.11 B50,2013-04-26 10:30:00,
2013-04-26 04:35:00,49.1,30.3,29.92,WNW,282,0.0,0.0,48,0.00,,,0.00,LWC V2.11 B50,2013-04-26 10:35:00,
2013-04-26 04:40:00,48.9,30.1,29.92,WNW,282,0.0,1.0,48,0.00,,,0.00,LWC V2.11 B50,2013-04-26 10:40:00,
2013-04-26 04:45:00,48.7,29.9,29.92,SW,234,0.0,0.0,48,0.00,,,0.00,LWC V2.11 B50,2013-04-26 10:45:00,
2013-04-26 04:50:00,48.6,29.3,29.92,SW,234,0.0,0.0,47,0.00,,,0.00,LWC V2.11 B50,2013-04-26 10:50:00,
2013-04-26 04:55:00,48.8,30.5,29.92,SW,234,0.0,0.0,49,0.00,,,0.00,LWC V2.11 B50,2013-04-26 10:55:00,
2013-04-26 05:00:00,49.0,31.2,29.92,SW,234,0.0,0.0,50,0.00,,,0.00,LWC V2.11 B50,2013-04-26 11:00:00,
2013-04-26 05:05:00,48.9,31.1,29.93,SW,234,0.0,0.0,50,0.00,,,0.00,LWC V2.11 B50,2013-04-26 11:05:00,
2013-04-26 05:10:00,48.7,30.4,29.93,SW,234,0.0,0.0,49,0.00,,,0.00,LWC V2.11 B50,2013-04-26 11:10:00,
2013-04-26 05:15:00,48.4,30.6,29.93,SW,234,0.0,0.0,50,0.00,,,0.00,LWC V2.11 B50,2013-04-26 11:15:00,
2013-04-26 05:20:00,48.1,30.8,29.93,SW,234,0.0,0.0,51,0.00,,,0.00,LWC V2.11 B50,2013-04-26 11:20:00,
2013-04-26 05:25:00,47.7,30.9,29.93,SW,234,0.0,0.0,52,0.00,,,0.00,LWC V2.11 B50,2013-04-26 11:25:00,
2013-04-26 05:30:00,47.4,30.2,29.94,SW,234,0.0,0.0,51,0.00,,,0.00,LWC V2.11 B50,2013-04-26 11:30:00,
2013-04-26 05:35:00,47.1,30.4,29.94,SW,234,0.0,0.0,52,0.00,,,0.00,LWC V2.11 B50,2013-04-26 11:35:00,
2013-04-26 05:40:00,46.9,30.2,29.94,SW,234,0.0,0.0,52,0.00,,,0.00,LWC V2.11 B50,2013-04-26 11:40:00,
2013-04-26 05:45:00,46.8,30.6,29.94,SW,234,0.0,0.0,53,0.00,,,0.00,LWC V2.11 B50,2013-04-26 11:45:00,
2013-04-26 05:50:00,46.6,30.4,29.94,SW,234,0.0,0.0,53,0.00,,,0.00,LWC V2.11 B50,2013-04-26 11:50:00,
2013-04-26 05:55:00,46.3,30.1,29.94,SW,234,0.0,0.0,53,0.00,,,0.00,LWC V2.11 B50,2013-04-26 11:55:00,
2013-04-26 06:00:00,46.1,29.9,29.94,SW,234,0.0,0.0,53,0.00,,,0.00,LWC V2.11 B50,2013-04-26 12:00:00,
2013-04-26 06:05:00,45.8,29.7,29.94,SW,234,0.0,0.0,53,0.00,,,0.00,LWC V2.11 B50,2013-04-26 12:05:00,
2013-04-26 06:10:00,45.6,29.9,29.95,SW,234,0.0,0.0,54,0.00,,,0.00,LWC V2.11 B50,2013-04-26 12:10:00,
2013-04-26 06:15:00,45.5,30.3,29.95,WNW,300,0.0,1.0,55,0.00,,,0.00,LWC V2.11 B50,2013-04-26 12:15:00,
2013-04-26 06:20:00,45.6,29.9,29.95,NW,309,0.0,2.0,54,0.00,,,0.00,LWC V2.11 B50,2013-04-26 12:20:00,
2013-04-26 06:25:00,45.9,29.7,29.95,NW,311,0.0,0.0,53,0.00,,,0.00,LWC V2.11 B50,2013-04-26 12:25:00,
2013-04-26 06:30:00,45.7,29.1,29.96,NW,311,0.0,0.0,52,0.00,,,0.00,LWC V2.11 B50,2013-04-26 12:30:00,
2013-04-26 06:35:00,45.4,28.8,29.97,NNW,331,0.0,1.0,52,0.00,,,0.00,LWC V2.11 B50,2013-04-26 12:35:00,
2013-04-26 06:40:00,45.0,28.4,29.97,NNW,331,0.0,0.0,52,0.00,,,0.00,LWC V2.11 B50,2013-04-26 12:40:00,
2013-04-26 06:45:00,44.8,29.2,29.97,NNW,331,0.0,0.0,54,0.00,,,0.00,LWC V2.11 B50,2013-04-26 12:45:00,
2013-04-26 06:50:00,44.6,29.4,29.97,NNW,331,0.0,0.0,55,0.00,,,0.00,LWC V2.11 B50,2013-04-26 12:50:00,
2013-04-26 06:55:00,44.4,29.3,29.97,NNW,331,0.0,0.0,55,0.00,,,0.00,LWC V2.11 B50,2013-04-26 12:55:00,
2013-04-26 07:00:00,44.3,29.2,29.97,NNW,331,0.0,0.0,55,0.00,,,0.00,LWC V2.11 B50,2013-04-26 13:00:00,
2013-04-26 07:05:00,44.3,29.2,29.97,NNW,331,0.0,0.0,55,0.00,,,0.00,LWC V2.11 B50,2013-04-26 13:05:00,
2013-04-26 07:10:00,44.3,29.2,29.98,NNW,331,0.0,0.0,55,0.00,,,0.00,LWC V2.11 B50,2013-04-26 13:10:00,
2013-04-26 07:15:00,44.4,30.1,29.98,NNE,22,0.0,0.0,57,0.00,,,0.00,LWC V2.11 B50,2013-04-26 13:15:00,
2013-04-26 07:20:00,44.5,29.8,29.98,NNE,22,0.0,0.0,56,0.00,,,0.00,LWC V2.11 B50,2013-04-26 13:20:00,
2013-04-26 07:25:00,44.9,29.7,29.99,NNE,22,0.0,0.0,55,0.00,,,0.00,LWC V2.11 B50,2013-04-26 13:25:00,
2013-04-26 07:30:00,46.0,29.4,29.99,NNE,22,0.0,0.0,52,0.00,,,0.00,LWC V2.11 B50,2013-04-26 13:30:00,
2013-04-26 07:35:00,47.1,29.4,29.99,NNE,22,0.0,0.0,50,0.00,,,0.00,LWC V2.11 B50,2013-04-26 13:35:00,
2013-04-26 07:40:00,48.2,29.4,29.99,NNE,22,0.0,0.0,48,0.00,,,0.00,LWC V2.11 B50,2013-04-26 13:40:00,
2013-04-26 07:45:00,49.3,33.8,29.99,NNE,22,0.0,0.0,55,0.00,,,0.00,LWC V2.11 B50,2013-04-26 13:45:00,
2013-04-26 07:50:00,50.3,30.8,30.00,NNE,22,0.0,0.0,47,0.00,,,0.00,LWC V2.11 B50,2013-04-26 13:50:00,
2013-04-26 07:55:00,51.3,30.7,30.00,NNE,22,0.0,0.0,45,0.00,,,0.00,LWC V2.11 B50,2013-04-26 13:55:00,
2013-04-26 08:00:00,52.1,34.5,30.00,NNE,26,0.0,0.0,51,0.00,,,0.00,LWC V2.11 B50,2013-04-26 14:00:00,
2013-04-26 08:05:00,53.0,32.8,30.00,NNE,30,0.0,1.0,46,0.00,,,0.00,LWC V2.11 B50,2013-04-26 14:05:00,
2013-04-26 08:10:00,54.0,32.0,30.00,NNE,32,0.0,0.0,43,0.00,,,0.00,LWC V2.11 B50,2013-04-26 14:10:00,
2013-04-26 08:15:00,54.8,28.4,30.00,NNE,32,0.0,0.0,36,0.00,,,0.00,LWC V2.11 B50,2013-04-26 14:15:00,
2013-04-26 08:20:00,55.7,27.8,30.00,NE,52,0.0,0.0,34,0.00,,,0.00,LWC V2.11 B50,2013-04-26 14:20:00,
2013-04-26 08:25:00,56.5,27.7,30.00,NE,53,0.0,0.0,33,0.00,,,0.00,LWC V2.11 B50,2013-04-26 14:25:00,
2013-04-26 08:30:00,57.4,28.5,30.00,ENE,74,0.0,0.0,33,0.00,,,0.00,LWC V2.11 B50,2013-04-26 14:30:00,
2013-04-26 08:35:00,58.0,29.1,30.00,East,90,0.0,0.0,33,0.00,,,0.00,LWC V2.11 B50,2013-04-26 14:35:00,
2013-04-26 08:40:00,58.7,28.9,30.00,ESE,107,0.0,0.0,32,0.00,,,0.00,LWC V2.11 B50,2013-04-26 14:40:00,
2013-04-26 08:45:00,59.3,28.7,30.00,ESE,106,0.0,1.0,31,0.00,,,0.00,LWC V2.11 B50,2013-04-26 14:45:00,
2013-04-26 08:50:00,59.8,28.3,30.00,SSE,152,0.0,0.0,30,0.00,,,0.00,LWC V2.11 B50,2013-04-26 14:50:00,
2013-04-26 08:55:00,59.7,28.2,30.01,ESE,121,0.0,2.0,30,0.00,,,0.00,LWC V2.11 B50,2013-04-26 14:55:00,
2013-04-26 09:00:00,59.9,28.4,30.01,ESE,115,0.0,2.0,30,0.00,,,0.00,LWC V2.11 B50,2013-04-26 15:00:00,
2013-04-26 09:02:00,60.0,28.5,30.01,SE,142,0.0,2.0,30,0.00,,,0.00,LWC V2.11 B50,2013-04-26 15:02:00,
2013-04-26 09:07:00,60.1,32.4,30.01,SSE,153,0.0,0.0,35,0.00,,,0.00,LWC V2.11 B50,2013-04-26 15:07:00,
2013-04-26 09:12:00,60.0,26.8,30.01,SSE,165,0.0,1.0,28,0.00,,,0.00,LWC V2.11 B50,2013-04-26 15:12:00,
2013-04-26 09:17:00,60.2,30.2,30.01,SSE,165,0.0,1.0,32,0.00,,,0.00,LWC V2.11 B50,2013-04-26 15:17:00,
2013-04-26 09:22:00,60.7,28.3,30.01,SSE,148,0.0,1.0,29,0.00,,,0.00,LWC V2.11 B50,2013-04-26 15:22:00,
2013-04-26 09:27:00,61.1,26.9,30.01,South,184,1.0,1.0,27,0.00,,,0.00,LWC V2.11 B50,2013-04-26 15:27:00,
2013-04-26 09:32:00,61.2,28.7,30.01,South,183,0.0,3.0,29,0.00,,,0.00,LWC V2.11 B50,2013-04-26 15:32:00,
2013-04-26 09:37:00,61.4,27.1,30.01,SSE,163,1.0,3.0,27,0.00,,,0.00,LWC V2.11 B50,2013-04-26 15:37:00,
2013-04-26 09:42:00,61.6,29.0,30.01,SSW,194,1.0,1.0,29,0.00,,,0.00,LWC V2.11 B50,2013-04-26 15:42:00,
2013-04-26 09:47:00,61.7,28.3,30.02,South,175,2.0,4.0,28,0.00,,,0.00,LWC V2.11 B50,2013-04-26 15:47:00,
2013-04-26 09:52:00,62.0,28.5,30.02,SSW,197,0.0,3.0,28,0.00,,,0.00,LWC V2.11 B50,2013-04-26 15:52:00,
2013-04-26 09:57:00,62.3,27.0,30.02,SSE,167,0.0,4.0,26,0.00,,,0.00,LWC V2.11 B50,2013-04-26 15:57:00,
2013-04-26 10:02:00,62.7,32.4,30.02,SSW,208,0.0,1.0,32,0.00,,,0.00,LWC V2.11 B50,2013-04-26 16:02:00,
2013-04-26 10:07:00,63.1,27.7,30.01,SSE,165,0.0,2.0,26,0.00,,,0.00,LWC V2.11 B50,2013-04-26 16:07:00,
2013-04-26 10:12:00,63.3,28.8,30.01,SSW,194,3.0,4.0,27,0.00,,,0.00,LWC V2.11 B50,2013-04-26 16:12:00,
2013-04-26 10:17:00,63.5,28.9,30.01,SSW,211,0.0,1.0,27,0.00,,,0.00,LWC V2.11 B50,2013-04-26 16:17:00,
2013-04-26 10:22:00,63.9,28.3,30.01,South,185,0.0,5.0,26,0.00,,,0.00,LWC V2.11 B50,2013-04-26 16:22:00,
2013-04-26 10:27:00,64.3,27.7,30.01,SSE,162,0.0,4.0,25,0.00,,,0.00,LWC V2.11 B50,2013-04-26 16:27:00,
2013-04-26 10:32:00,64.3,28.7,30.01,SSW,200,0.0,1.0,26,0.00,,,0.00,LWC V2.11 B50,2013-04-26 16:32:00,
2013-04-26 10:37:00,64.5,28.9,30.01,South,171,1.0,4.0,26,0.00,,,0.00,LWC V2.11 B50,2013-04-26 16:37:00,
2013-04-26 10:42:00,64.9,27.2,30.01,SSE,161,0.0,5.0,24,0.00,,,0.00,LWC V2.11 B50,2013-04-26 16:42:00,
2013-04-26 10:47:00,65.3,28.6,30.01,ESE,118,1.0,6.0,25,0.00,,,0.00,LWC V2.11 B50,2013-04-26 16:47:00,
2013-04-26 10:52:00,65.6,27.8,30.00,East,101,3.0,6.0,24,0.00,,,0.00,LWC V2.11 B50,2013-04-26 16:52:00,
2013-04-26 10:57:00,66.1,30.2,30.00,South,181,1.0,4.0,26,0.00,,,0.00,LWC V2.11 B50,2013-04-26 16:57:00,
2013-04-26 11:02:00,66.6,28.7,30.01,South,180,0.0,4.0,24,0.00,,,0.00,LWC V2.11 B50,2013-04-26 17:02:00,
2013-04-26 11:07:00,66.8,28.8,30.00,South,182,0.0,0.0,24,0.00,,,0.00,LWC V2.11 B50,2013-04-26 17:07:00,
2013-04-26 11:12:00,67.4,28.3,30.00,South,170,0.0,2.0,23,0.00,,,0.00,LWC V2.11 B50,2013-04-26 17:12:00,
2013-04-26 11:17:00,68.2,26.8,30.00,NNE,19,1.0,5.0,21,0.00,,,0.00,LWC V2.11 B50,2013-04-26 17:17:00,
2013-04-26 11:22:00,68.3,25.7,30.00,NNE,14,1.0,10.0,20,0.00,,,0.00,LWC V2.11 B50,2013-04-26 17:22:00,
2013-04-26 11:27:00,68.6,24.7,30.00,WNW,290,2.0,7.0,19,0.00,,,0.00,LWC V2.11 B50,2013-04-26 17:27:00,
2013-04-26 11:32:00,68.7,24.8,30.00,WNW,301,3.0,12.0,19,0.00,,,0.00,LWC V2.11 B50,2013-04-26 17:32:00,
2013-04-26 11:37:00,68.9,24.9,30.00,NW,309,1.0,7.0,19,0.00,,,0.00,LWC V2.11 B50,2013-04-26 17:37:00,
2013-04-26 11:42:00,69.5,25.4,30.00,NNW,345,3.0,8.0,19,0.00,,,0.00,LWC V2.11 B50,2013-04-26 17:42:00,
2013-04-26 11:47:00,69.7,24.3,30.00,North,5,1.0,3.0,18,0.00,,,0.00,LWC V2.11 B50,2013-04-26 17:47:00,
2013-04-26 11:52:00,70.0,24.5,30.00,WNW,292,0.0,5.0,18,0.00,,,0.00,LWC V2.11 B50,2013-04-26 17:52:00,
2013-04-26 11:57:00,70.2,27.2,29.99,WSW,253,0.0,1.0,20,0.00,,,0.00,LWC V2.11 B50,2013-04-26 17:57:00,
2013-04-26 12:02:00,70.3,27.3,29.99,SW,218,1.0,3.0,20,0.00,,,0.00,LWC V2.11 B50,2013-04-26 18:02:00,
2013-04-26 12:07:00,70.5,23.6,29.99,West,271,0.0,5.0,17,0.00,,,0.00,LWC V2.11 B50,2013-04-26 18:07:00,
2013-04-26 12:12:00,70.6,25.0,29.98,West,278,2.0,6.0,18,0.00,,,0.00,LWC V2.11 B50,2013-04-26 18:12:00,
2013-04-26 12:17:00,71.1,22.6,29.98,WNW,290,3.0,10.0,16,0.00,,,0.00,LWC V2.11 B50,2013-04-26 18:17:00,
2013-04-26 12:22:00,71.5,23.0,29.98,West,281,4.0,6.0,16,0.00,,,0.00,LWC V2.11 B50,2013-04-26 18:22:00,
2013-04-26 12:27:00,71.9,24.7,29.98,West,272,0.0,9.0,17,0.00,,,0.00,LWC V2.11 B50,2013-04-26 18:27:00,
2013-04-26 12:32:00,72.1,23.4,29.97,NW,321,5.0,7.0,16,0.00,,,0.00,LWC V2.11 B50,2013-04-26 18:32:00,
2013-04-26 12:37:00,72.3,22.1,29.97,West,279,0.0,4.0,15,0.00,,,0.00,LWC V2.11 B50,2013-04-26 18:37:00,
2013-04-26 12:42:00,72.7,22.4,29.97,NW,309,2.0,4.0,15,0.00,,,0.00,LWC V2.11 B50,2013-04-26 18:42:00,
2013-04-26 12:47:00,72.8,20.8,29.97,WNW,299,0.0,4.0,14,0.00,,,0.00,LWC V2.11 B50,2013-04-26 18:47:00,
2013-04-26 12:52:00,72.9,22.5,29.96,WSW,254,0.0,1.0,15,0.00,,,0.00,LWC V2.11 B50,2013-04-26 18:52:00,
2013-04-26 12:57:00,73.0,22.6,29.96,West,274,0.0,2.0,15,0.00,,,0.00,LWC V2.11 B50,2013-04-26 18:57:00,
2013-04-26 13:02:00,73.2,21.2,29.96,WNW,300,3.0,10.0,14,0.00,,,0.00,LWC V2.11 B50,2013-04-26 19:02:00,
2013-04-26 13:07:00,73.0,19.3,29.96,WNW,298,2.0,10.0,13,0.00,,,0.00,LWC V2.11 B50,2013-04-26 19:07:00,
2013-04-26 13:12:00,73.4,21.3,29.96,North,5,2.0,6.0,14,0.00,,,0.00,LWC V2.11 B50,2013-04-26 19:12:00,
2013-04-26 13:17:00,73.8,19.9,29.96,NW,323,0.0,2.0,13,0.00,,,0.00,LWC V2.11 B50,2013-04-26 19:17:00,
2013-04-26 13:22:00,74.4,16.5,29.95,NNW,327,1.0,9.0,11,0.00,,,0.00,LWC V2.11 B50,2013-04-26 19:22:00,
2013-04-26 13:27:00,74.5,16.6,29.95,WSW,250,5.0,7.0,11,0.00,,,0.00,LWC V2.11 B50,2013-04-26 19:27:00,
2013-04-26 13:32:00,74.8,16.8,29.96,WNW,300,8.0,9.0,11,0.00,,,0.00,LWC V2.11 B50,2013-04-26 19:32:00,
2013-04-26 13:37:00,74.8,18.8,29.95,NNE,33,3.0,7.0,12,0.00,,,0.00,LWC V2.11 B50,2013-04-26 19:37:00,
2013-04-26 13:42:00,75.2,17.1,29.95,NE,38,6.0,6.0,11,0.00,,,0.00,LWC V2.11 B50,2013-04-26 19:42:00,
2013-04-26 13:47:00,75.5,10.1,29.95,NE,36,5.0,10.0,8,0.00,,,0.00,LWC V2.11 B50,2013-04-26 19:47:00,
2013-04-26 13:52:00,75.1,12.4,29.95,WNW,291,3.0,3.0,9,0.00,,,0.00,LWC V2.11 B50,2013-04-26 19:52:00,
2013-04-26 13:57:00,75.5,12.7,29.95,WNW,288,3.0,16.0,9,0.00,,,0.00,LWC V2.11 B50,2013-04-26 19:57:00,
2013-04-26 14:02:00,75.7,12.9,29.95,WNW,295,7.0,7.0,9,0.00,,,0.00,LWC V2.11 B50,2013-04-26 20:02:00,
2013-04-26 14:07:00,75.2,12.5,29.95,North,10,2.0,7.0,9,0.00,,,0.00,LWC V2.11 B50,2013-04-26 20:07:00,
2013-04-26 14:12:00,75.3,17.2,29.95,NNW,342,4.0,11.0,11,0.00,,,0.00,LWC V2.11 B50,2013-04-26 20:12:00,
2013-04-26 14:17:00,75.9,13.0,29.95,WNW,296,0.0,2.0,9,0.00,,,0.00,LWC V2.11 B50,2013-04-26 20:17:00,
2013-04-26 14:22:00,75.9,10.4,29.95,NW,320,0.0,8.0,8,0.00,,,0.00,LWC V2.11 B50,2013-04-26 20:22:00,
2013-04-26 14:27:00,75.6,12.8,29.95,West,263,1.0,14.0,9,0.00,,,0.00,LWC V2.11 B50,2013-04-26 20:27:00,
2013-04-26 14:32:00,75.4,12.7,29.95,WNW,291,4.0,5.0,9,0.00,,,0.00,LWC V2.11 B50,2013-04-26 20:32:00,
2013-04-26 14:37:00,75.4,12.7,29.95,West,276,0.0,2.0,9,0.00,,,0.00,LWC V2.11 B50,2013-04-26 20:37:00,
2013-04-26 14:42:00,75.4,10.0,29.95,West,277,0.0,9.0,8,0.00,,,0.00,LWC V2.11 B50,2013-04-26 20:42:00,
2013-04-26 14:47:00,75.8,7.4,29.95,West,269,3.0,11.0,7,0.00,,,0.00,LWC V2.11 B50,2013-04-26 20:47:00,
2013-04-26 14:52:00,76.2,10.6,29.94,NW,321,0.0,5.0,8,0.00,,,0.00,LWC V2.11 B50,2013-04-26 20:52:00,
2013-04-26 14:57:00,75.9,7.4,29.94,North,350,6.0,8.0,7,0.00,,,0.00,LWC V2.11 B50,2013-04-26 20:57:00,
2013-04-26 15:02:00,75.6,7.2,29.95,WNW,295,1.0,13.0,7,0.00,,,0.00,LWC V2.11 B50,2013-04-26 21:02:00,
2013-04-26 15:07:00,75.5,10.1,29.94,WNW,302,4.0,4.0,8,0.00,,,0.00,LWC V2.11 B50,2013-04-26 21:07:00,
2013-04-26 15:12:00,75.9,7.4,29.94,West,275,1.0,4.0,7,0.00,,,0.00,LWC V2.11 B50,2013-04-26 21:12:00,
2013-04-26 15:17:00,76.2,7.6,29.94,West,275,2.0,3.0,7,0.00,,,0.00,LWC V2.11 B50,2013-04-26 21:17:00,
2013-04-26 15:22:00,76.2,4.3,29.94,East,86,0.0,10.0,6,0.00,,,0.00,LWC V2.11 B50,2013-04-26 21:22:00,
2013-04-26 15:27:00,76.4,7.8,29.93,North,355,1.0,5.0,7,0.00,,,0.00,LWC V2.11 B50,2013-04-26 21:27:00,
2013-04-26 15:32:00,77.0,8.2,29.93,NE,34,3.0,4.0,7,0.00,,,0.00,LWC V2.11 B50,2013-04-26 21:32:00,
2013-04-26 15:37:00,77.4,5.1,29.93,North,350,2.0,5.0,6,0.00,,,0.00,LWC V2.11 B50,2013-04-26 21:37:00,
2013-04-26 15:42:00,77.5,5.2,29.93,West,271,0.0,3.0,6,0.00,,,0.00,LWC V2.11 B50,2013-04-26 21:42:00,
2013-04-26 15:47:00,77.5,5.2,29.93,West,278,0.0,1.0,6,0.00,,,0.00,LWC V2.11 B50,2013-04-26 21:47:00,
2013-04-26 15:52:00,77.9,1.6,29.93,NW,307,4.0,12.0,5,0.00,,,0.00,LWC V2.11 B50,2013-04-26 21:52:00,
2013-04-26 15:57:00,77.6,1.4,29.93,NW,318,1.0,2.0,5,0.00,,,0.00,LWC V2.11 B50,2013-04-26 21:57:00,
2013-04-26 16:02:00,77.0,0.9,29.93,NW,311,0.0,15.0,5,0.00,,,0.00,LWC V2.11 B50,2013-04-26 22:02:00,
2013-04-26 16:07:00,76.5,0.6,29.93,NW,308,2.0,11.0,5,0.00,,,0.00,LWC V2.11 B50,2013-04-26 22:07:00,
2013-04-26 16:12:00,76.4,0.5,29.93,NNW,332,3.0,7.0,5,0.00,,,0.00,LWC V2.11 B50,2013-04-26 22:12:00,
2013-04-26 16:17:00,76.5,0.6,29.92,North,0,0.0,2.0,5,0.00,,,0.00,LWC V2.11 B50,2013-04-26 22:17:00,
2013-04-26 16:22:00,76.9,0.9,29.92,North,5,2.0,11.0,5,0.00,,,0.00,LWC V2.11 B50,2013-04-26 22:22:00,
2013-04-26 16:27:00,76.9,0.9,29.92,North,355,7.0,7.0,5,0.00,,,0.00,LWC V2.11 B50,2013-04-26 22:27:00,
2013-04-26 16:32:00,76.8,0.8,29.92,NW,315,10.0,10.0,5,0.00,,,0.00,LWC V2.11 B50,2013-04-26 22:32:00,
2013-04-26 16:37:00,76.0,0.2,29.93,WNW,297,8.0,14.0,5,0.00,,,0.00,LWC V2.11 B50,2013-04-26 22:37:00,
2013-04-26 16:42:00,75.8,0.1,29.93,NW,310,1.0,7.0,5,0.00,,,0.00,LWC V2.11 B50,2013-04-26 22:42:00,
2013-04-26 16:47:00,75.7,3.9,29.93,West,265,0.0,1.0,6,0.00,,,0.00,LWC V2.11 B50,2013-04-26 22:47:00,
2013-04-26 16:52:00,75.2,3.6,29.93,NW,312,0.0,5.0,6,0.00,,,0.00,LWC V2.11 B50,2013-04-26 22:52:00,
2013-04-26 16:57:00,74.3,2.9,29.93,West,275,0.0,4.0,6,0.00,,,0.00,LWC V2.11 B50,2013-04-26 22:57:00,
2013-04-26 17:02:00,73.9,2.6,29.93,NW,321,5.0,9.0,6,0.00,,,0.00,LWC V2.11 B50,2013-04-26 23:02:00,
2013-04-26 17:07:00,73.5,5.7,29.93,WNW,292,6.0,9.0,7,0.00,,,0.00,LWC V2.11 B50,2013-04-26 23:07:00,
2013-04-26 17:12:00,73.4,2.3,29.93,NW,304,1.0,9.0,6,0.00,,,0.00,LWC V2.11 B50,2013-04-26 23:12:00,
2013-04-26 17:17:00,73.4,2.3,29.93,NW,313,2.0,10.0,6,0.00,,,0.00,LWC V2.11 B50,2013-04-26 23:17:00,
2013-04-26 17:22:00,73.2,2.1,29.93,NW,315,5.0,10.0,6,0.00,,,0.00,LWC V2.11 B50,2013-04-26 23:22:00,
2013-04-26 17:27:00,73.3,8.5,29.93,West,280,0.0,2.0,8,0.00,,,0.00,LWC V2.11 B50,2013-04-26 23:27:00,
2013-04-26 17:32:00,74.0,9.0,29.93,West,281,0.0,2.0,8,0.00,,,0.00,LWC V2.11 B50,2013-04-26 23:32:00,
2013-04-26 17:37:00,74.4,9.3,29.93,NW,319,1.0,3.0,8,0.00,,,0.00,LWC V2.11 B50,2013-04-26 23:37:00,
2013-04-26 17:42:00,74.5,12.0,29.93,SW,219,0.0,1.0,9,0.00,,,0.00,LWC V2.11 B50,2013-04-26 23:42:00,
2013-04-26 17:47:00,74.3,6.3,29.93,NNW,332,9.0,9.0,7,0.00,,,0.00,LWC V2.11 B50,2013-04-26 23:47:00,
2013-04-26 17:52:00,73.8,5.9,29.93,WSW,255,2.0,14.0,7,0.00,,,0.00,LWC V2.11 B50,2013-04-26 23:52:00,
2013-04-26 18:05:00,72.1,4.6,29.94,NW,311,0.0,8.0,7,0.00,,,0.00,LWC V2.11 B50,2013-04-27 00:05:00,
2013-04-26 18:10:00,71.9,4.5,29.94,WNW,284,1.0,7.0,7,0.00,,,0.00,LWC V2.11 B50,2013-04-27 00:10:00,
2013-04-26 18:15:00,71.8,7.3,29.94,West,277,1.0,1.0,8,0.00,,,0.00,LWC V2.11 B50,2013-04-27 00:15:00,
2013-04-26 18:17:00,71.8,7.3,29.95,WNW,288,3.0,6.0,8,0.00,,,0.00,LWC V2.11 B50,2013-04-27 00:17:00,
2013-04-26 18:22:00,71.8,7.3,29.94,North,355,0.0,9.0,8,0.00,,,0.00,LWC V2.11 B50,2013-04-27 00:22:00,
2013-04-26 18:27:00,71.8,10.0,29.94,WSW,246,0.0,0.0,9,0.00,,,0.00,LWC V2.11 B50,2013-04-27 00:27:00,
2013-04-26 18:32:00,71.9,10.0,29.94,SW,221,3.0,4.0,9,0.00,,,0.00,LWC V2.11 B50,2013-04-27 00:32:00,
2013-04-26 18:37:00,71.9,7.4,29.94,SSW,200,1.0,2.0,8,0.00,,,0.00,LWC V2.11 B50,2013-04-27 00:37:00,
2013-04-26 18:42:00,72.2,7.6,29.94,SSW,201,0.0,1.0,8,0.00,,,0.00,LWC V2.11 B50,2013-04-27 00:42:00,
2013-04-26 18:47:00,72.6,7.9,29.94,West,270,0.0,2.0,8,0.00,,,0.00,LWC V2.11 B50,2013-04-27 00:47:00,
2013-04-26 18:52:00,72.7,5.1,29.95,NW,315,0.0,2.0,7,0.00,,,0.00,LWC V2.11 B50,2013-04-27 00:52:00,
2013-04-26 18:57:00,72.6,7.9,29.95,NW,315,2.0,4.0,8,0.00,,,0.00,LWC V2.11 B50,2013-04-27 00:57:00,
2013-04-26 19:02:00,72.5,7.9,29.95,WNW,290,3.0,11.0,8,0.00,,,0.00,LWC V2.11 B50,2013-04-27 01:02:00,
2013-04-26 19:07:00,72.5,4.9,29.95,NW,326,5.0,9.0,7,0.00,,,0.00,LWC V2.11 B50,2013-04-27 01:07:00,
2013-04-26 19:12:00,72.4,7.8,29.95,WNW,295,4.0,9.0,8,0.00,,,0.00,LWC V2.11 B50,2013-04-27 01:12:00,
2013-04-26 19:17:00,72.1,7.6,29.95,WNW,292,2.0,6.0,8,0.00,,,0.00,LWC V2.11 B50,2013-04-27 01:17:00,
2013-04-26 19:22:00,71.7,7.3,29.96,NW,311,2.0,2.0,8,0.00,,,0.00,LWC V2.11 B50,2013-04-27 01:22:00,
2013-04-26 19:27:00,71.4,7.0,29.96,WNW,298,0.0,5.0,8,0.00,,,0.00,LWC V2.11 B50,2013-04-27 01:27:00,
2013-04-26 19:32:00,71.0,6.8,29.96,WNW,298,2.0,7.0,8,0.00,,,0.00,LWC V2.11 B50,2013-04-27 01:32:00,
2013-04-26 19:37:00,70.6,9.0,29.96,WNW,296,0.0,5.0,9,0.00,,,0.00,LWC V2.11 B50,2013-04-27 01:37:00,
2013-04-26 19:42:00,70.1,8.7,29.96,NW,308,0.0,2.0,9,0.00,,,0.00,LWC V2.11 B50,2013-04-27 01:42:00,
2013-04-26 19:47:00,69.5,10.6,29.97,WNW,294,3.0,3.0,10,0.00,,,0.00,LWC V2.11 B50,2013-04-27 01:47:00,
2013-04-26 19:52:00,69.1,10.3,29.97,NW,320,0.0,1.0,10,0.00,,,0.00,LWC V2.11 B50,2013-04-27 01:52:00,
2013-04-26 19:57:00,68.6,12.0,29.97,NW,315,0.0,2.0,11,0.00,,,0.00,LWC V2.11 B50,2013-04-27 01:57:00,
2013-04-26 20:02:00,68.2,9.6,29.97,NW,309,0.0,1.0,10,0.00,,,0.00,LWC V2.11 B50,2013-04-27 02:02:00,
2013-04-26 20:07:00,67.8,11.4,29.97,WNW,301,2.0,4.0,11,0.00,,,0.00,LWC V2.11 B50,2013-04-27 02:07:00,
2013-04-26 20:12:00,67.3,11.0,29.98,WNW,299,1.0,3.0,11,0.00,,,0.00,LWC V2.11 B50,2013-04-27 02:12:00,
2013-04-26 20:17:00,66.7,10.5,29.98,WNW,299,0.0,5.0,11,0.00,,,0.00,LWC V2.11 B50,2013-04-27 02:17:00,
2013-04-26 20:22:00,66.2,10.2,29.98,WNW,287,0.0,3.0,11,0.00,,,0.00,LWC V2.11 B50,2013-04-27 02:22:00,
2013-04-26 20:27:00,65.6,9.7,29.98,WNW,295,0.0,4.0,11,0.00,,,0.00,LWC V2.11 B50,2013-04-27 02:27:00,
2013-04-26 20:32:00,65.2,9.4,29.99,NW,314,0.0,2.0,11,0.00,,,0.00,LWC V2.11 B50,2013-04-27 02:32:00,
2013-04-26 20:37:00,64.8,9.1,29.99,WNW,286,0.0,5.0,11,0.00,,,0.00,LWC V2.11 B50,2013-04-27 02:37:00,
2013-04-26 20:42:00,64.5,10.8,29.99,WNW,297,0.0,3.0,12,0.00,,,0.00,LWC V2.11 B50,2013-04-27 02:42:00,
2013-04-26 20:47:00,64.6,10.9,29.99,NNW,329,4.0,6.0,12,0.00,,,0.00,LWC V2.11 B50,2013-04-27 02:47:00,
2013-04-26 20:52:00,64.2,8.6,30.00,WNW,300,6.0,6.0,11,0.00,,,0.00,LWC V2.11 B50,2013-04-27 02:52:00,
2013-04-26 20:57:00,64.1,8.5,30.00,NW,320,3.0,4.0,11,0.00,,,0.00,LWC V2.11 B50,2013-04-27 02:57:00,
2013-04-26 21:02:00,63.7,10.2,30.00,NW,313,3.0,4.0,12,0.00,,,0.00,LWC V2.11 B50,2013-04-27 03:02:00,
2013-04-26 21:07:00,63.1,9.7,30.01,WNW,300,4.0,5.0,12,0.00,,,0.00,LWC V2.11 B50,2013-04-27 03:07:00,
2013-04-26 21:12:00,62.9,9.5,30.01,NW,310,0.0,4.0,12,0.00,,,0.00,LWC V2.11 B50,2013-04-27 03:12:00,
2013-04-26 21:17:00,62.5,9.2,30.01,NNW,328,1.0,3.0,12,0.00,,,0.00,LWC V2.11 B50,2013-04-27 03:17:00,
2013-04-26 21:22:00,62.1,8.9,30.01,WNW,298,2.0,3.0,12,0.00,,,0.00,LWC V2.11 B50,2013-04-27 03:22:00,
2013-04-26 21:27:00,61.6,8.5,30.02,NW,318,0.0,3.0,12,0.00,,,0.00,LWC V2.11 B50,2013-04-27 03:27:00,
2013-04-26 21:32:00,61.3,10.1,30.02,NW,319,0.0,0.0,13,0.00,,,0.00,LWC V2.11 B50,2013-04-27 03:32:00,
2013-04-26 21:37:00,60.9,8.0,30.03,NNE,19,1.0,3.0,12,0.00,,,0.00,LWC V2.11 B50,2013-04-27 03:37:00,
2013-04-26 21:42:00,60.7,7.8,30.03,NW,309,0.0,1.0,12,0.00,,,0.00,LWC V2.11 B50,2013-04-27 03:42:00,
2013-04-26 21:47:00,60.4,9.4,30.03,NNE,15,0.0,3.0,13,0.00,,,0.00,LWC V2.11 B50,2013-04-27 03:47:00,
2013-04-26 21:52:00,60.2,15.2,30.03,NE,36,2.0,2.0,17,0.00,,,0.00,LWC V2.11 B50,2013-04-27 03:52:00,
2013-04-26 21:55:00,60.2,17.8,30.03,NNE,18,1.0,2.0,19,0.00,,,0.00,LWC V2.11 B50,2013-04-27 03:55:00,
2013-04-26 22:00:00,60.7,23.7,30.03,North,5,1.0,5.0,24,0.00,,,0.00,LWC V2.11 B50,2013-04-27 04:00:00,
2013-04-26 22:01:00,60.7,23.7,30.03,NE,34,1.0,4.0,24,0.00,,,0.00,LWC V2.11 B50,2013-04-27 04:01:00,
2013-04-26 22:06:00,61.3,25.2,30.04,North,5,1.0,2.0,25,0.00,,,0.00,LWC V2.11 B50,2013-04-27 04:06:00,
2013-04-26 22:11:00,61.5,26.3,30.04,NNE,16,0.0,3.0,26,0.00,,,0.00,LWC V2.11 B50,2013-04-27 04:11:00,
2013-04-26 22:16:00,61.4,27.1,30.04,NNE,17,1.0,2.0,27,0.00,,,0.00,LWC V2.11 B50,2013-04-27 04:16:00,
2013-04-26 22:21:00,61.4,27.1,30.04,NE,51,6.0,6.0,27,0.00,,,0.00,LWC V2.11 B50,2013-04-27 04:21:00,
2013-04-26 22:26:00,61.4,27.1,30.04,NNE,16,2.0,3.0,27,0.00,,,0.00,LWC V2.11 B50,2013-04-27 04:26:00,
2013-04-26 22:31:00,61.4,27.1,30.04,North,5,0.0,1.0,27,0.00,,,0.00,LWC V2.11 B50,2013-04-27 04:31:00,
2013-04-26 22:36:00,61.2,27.8,30.04,North,11,0.0,2.0,28,0.00,,,0.00,LWC V2.11 B50,2013-04-27 04:36:00,
2013-04-26 22:41:00,61.0,27.7,30.05,NNE,14,0.0,0.0,28,0.00,,,0.00,LWC V2.11 B50,2013-04-27 04:41:00,
2013-04-26 22:46:00,60.7,27.4,30.05,NNE,14,0.0,1.0,28,0.00,,,0.00,LWC V2.11 B50,2013-04-27 04:46:00,
2013-04-26 22:51:00,60.3,27.1,30.05,NNE,14,0.0,0.0,28,0.00,,,0.00,LWC V2.11 B50,2013-04-27 04:51:00,
2013-04-26 22:56:00,59.8,25.8,30.05,NNE,14,0.0,0.0,27,0.00,,,0.00,LWC V2.11 B50,2013-04-27 04:56:00,
2013-04-26 23:01:00,59.2,26.1,30.06,NNE,14,0.0,0.0,28,0.00,,,0.00,LWC V2.11 B50,2013-04-27 05:01:00,
2013-04-26 23:06:00,58.5,25.5,30.06,NNW,327,4.0,4.0,28,0.00,,,0.00,LWC V2.11 B50,2013-04-27 05:06:00,
2013-04-26 23:11:00,58.1,25.2,30.05,NW,325,0.0,0.0,28,0.00,,,0.00,LWC V2.11 B50,2013-04-27 05:11:00,
2013-04-26 23:16:00,57.7,25.7,30.06,NW,325,0.0,0.0,29,0.00,,,0.00,LWC V2.11 B50,2013-04-27 05:16:00,
2013-04-26 23:21:00,57.2,25.2,30.06,NW,325,0.0,1.0,29,0.00,,,0.00,LWC V2.11 B50,2013-04-27 05:21:00,
2013-04-26 23:26:00,56.5,24.6,30.06,NW,306,0.0,3.0,29,0.00,,,0.00,LWC V2.11 B50,2013-04-27 05:26:00,
2013-04-26 23:31:00,56.2,25.2,30.06,NNW,329,1.0,6.0,30,0.00,,,0.00,LWC V2.11 B50,2013-04-27 05:31:00,
2013-04-26 23:36:00,56.1,25.1,30.06,WNW,294,0.0,2.0,30,0.00,,,0.00,LWC V2.11 B50,2013-04-27 05:36:00,
2013-04-26 23:41:00,56.0,25.8,30.06,NW,315,0.0,2.0,31,0.00,,,0.00,LWC V2.11 B50,2013-04-27 05:41:00,
2013-04-26 23:46:00,55.8,25.6,30.06,NW,319,2.0,2.0,31,0.00,,,0.00,LWC V2.11 B50,2013-04-27 05:46:00,
2013-04-26 23:51:00,55.6,26.2,30.06,NW,325,1.0,5.0,32,0.00,,,0.00,LWC V2.11 B50,2013-04-27 05:51:00,
2013-04-26 23:56:00,55.7,27.0,30.06,NNW,346,0.0,4.0,33,0.00,,,0.00,LWC V2.11 B50,2013-04-27 05:56:00,